Flag for Germany Weather past 2 weeks in Idar-Oberstein, Rhineland-Palatinate, Germany

Now
75 °F

Partly sunny.


Feels Like: 77 °F
Forecast: 58 / 78 °F
Wind: 12 mph from North

Location: Hahn

Current Time: Jul 23, 2014 at 2:20:52 AM

Latest Report: Jul 22, 2014 at 6:50 PM


Visibility: N/A

Pressure: 30.04 "Hg

Humidity: 65%

Dew point: 63 °F

Location of Idar-ObersteinLocation

Historic Weather in Idar-Oberstein — Graph

°F

Idar-Oberstein temperature yesterday

Maximum temperature yesterday: 77 °F (at 3:20 PM)
Minimum temperature yesterday: 63 °F (at 12:20 AM)
Average temperature yesterday: 67 °F

Past Weeks' High & Low Weather Summary

 TemperatureHumidityPressure
High86 °F (Jul 18, 3:50 PM)100% (Jul 8, 3:20 AM)30.21 "Hg (Jul 8, 3:20 AM)
Low48 °F (Jul 9, 6:50 AM)31% (Jul 18, 5:50 PM)29.71 "Hg (Jul 9, 5:50 PM)
Average65 °F79%29.97 "Hg
* Reported Jul 7 6:20 PM — Jul 22 6:50 PM, Idar-Oberstein, Weather by CustomWeather, © 2014

Note: Actual official high and low records may vary slightly from our data, if they occured in-between our weather recording intervals... More about our weather records

Advertising

Idar-Oberstein weather history for previous 24 hours

 ConditionsComfort  
Time TempWeatherWind HumidityBarometerVisibility
6:50 PM
Jul 22
75 °FPartly sunny.12 mph65%30.04 "HgN/A
6:20 PM75 °FScattered clouds.14 mph65%30.04 "HgN/A
5:50 PM75 °FScattered clouds.12 mph65%30.04 "HgN/A
5:20 PM75 °FScattered clouds.12 mph69%30.04 "HgN/A
4:50 PM75 °FScattered clouds.12 mph65%30.04 "HgN/A
4:20 PM75 °FScattered clouds.9 mph65%30.04 "HgN/A
3:50 PM73 °FScattered clouds.12 mph69%30.04 "HgN/A
3:20 PM77 °FScattered clouds.14 mph57%30.04 "HgN/A
2:50 PM75 °FScattered clouds.13 mph61%30.04 "HgN/A
2:20 PM75 °FPartly sunny.12 mph69%30.04 "HgN/A
1:50 PM73 °FBroken clouds.9 mph78%30.04 "Hg6 mi
1:20 PM70 °FFog.12 mph88%30.04 "Hg3 mi
12:50 PM68 °FFog.9 mph88%30.07 "Hg3 mi
12:20 PM66 °FFog.12 mph94%30.04 "Hg3 mi
11:50 AM66 °FFog.13 mph94%30.04 "Hg3 mi
11:20 AM66 °FFog.13 mph100%30.04 "Hg3 mi
10:50 AM66 °FFog.13 mph100%30.04 "Hg3 mi
10:20 AM64 °FFog.12 mph100%30.04 "Hg2 mi
9:50 AM64 °FFog.13 mph100%30.04 "Hg1 mi
9:20 AM64 °FFog.15 mph100%30.01 "Hg1 mi
8:50 AM64 °FFog.14 mph100%30.01 "Hg1 mi
8:20 AM63 °FFog.10 mph100%30.01 "Hg1 mi
7:53 AM63 °FLight rain. Fog.9 mph100%30.01 "Hg1 mi
7:20 AM63 °FLight rain. Fog.8 mph100%30.01 "Hg1 mi
6:54 AM63 °FFog.8 mph100%29.98 "Hg1 mi
6:20 AM63 °FDrizzle. Fog.8 mph100%29.98 "Hg0 mi
5:50 AM63 °FDrizzle. Fog.8 mph100%29.98 "Hg0 mi
5:20 AM63 °FDrizzle. Fog.7 mph100%29.98 "Hg1 mi
4:50 AM63 °FDrizzle. Fog.7 mph100%29.98 "Hg1 mi
4:20 AM63 °FLight rain. Fog.8 mph100%29.98 "Hg1 mi
3:50 AM63 °FFog.9 mph100%29.98 "Hg1 mi
3:20 AM63 °FDrizzle. Low clouds.8 mph100%29.98 "Hg1 mi
2:50 AM63 °FFog.8 mph100%29.98 "Hg1 mi
2:20 AM63 °FFog.7 mph100%29.98 "Hg0 mi
Weather by CustomWeather, © 2014

See weather overviewHow to use our weather pages